Location: Fisheating Creek Campgrounds
(26.9333°N, 81.3167°W)
Time: 12:36:04
(UTC-04:00)

Daily predictions for brighter satellites

Satellite Brightness Start Highest point End
(mag) Time Altitude Azimuth Time Altitude Azimuth Time Altitude Azimuth
Cosmos 1975 4.4 20:07:02 10° SE 20:09:41 17° E 20:12:19 10° NE
Cosmos 2239 Rocket 4.5 20:04:52 10° S 20:11:06 76° E 20:17:17 10° N
H-II Stage 2 2.0 20:10:06 10° WSW 20:12:22 41° S 20:14:08 10° E
GOES 2 Rocket 3.5 20:10:23 10° W 20:14:30 48° SSW 20:18:35 10° SE
Cosmos 1656 4.1 20:09:59 10° S 20:15:13 41° ESE 20:20:25 10° NE
Cosmos 1934 Rocket 4.0 20:11:31 10° S 20:17:31 64° E 20:23:38 10° NNE
Meteor 1-28 Rocket 4.5 20:16:25 10° N 20:20:04 46° WNW 20:23:41 10° SSW
Meteor 1-23 Rocket 4.3 20:16:03 10° N 20:21:41 63° E 20:27:21 10° SSE
Cosmos 1544 Rocket 3.6 20:17:46 10° S 20:22:08 89° E 20:26:33 10° N
SJ-6B 3.4 20:20:04 10° S 20:23:44 58° W 20:27:25 10° NNW
Fermi 3.9 20:21:59 10° WSW 20:26:02 61° S 20:29:40 12° E
Resurs 01 Rocket 1.6 20:22:02 10° SSE 20:26:24 67° ENE 20:30:48 10° N
Helios 1B rocket 3.5 20:25:05 10° N 20:29:04 50° WNW 20:33:02 10° SSW
Okean 2 3.5 20:27:17 10° N 20:31:21 53° E 20:35:22 10° SSE
Meteor 1-12 Rocket 4.5 20:26:21 10° SSE 20:31:46 47° E 20:37:18 10° NNE
H-2A R/B 3.6 20:27:48 10° W 20:31:46 74° S 20:49:41 15° ESE
Hubble Space Telescope 1.2 20:27:47 10° W 20:31:52 54° SSW 20:35:13 14° ESE
Cosmos 2227 Rocket 2.9 20:27:00 10° N 20:32:07 34° ENE 20:36:48 12° SE
Myojo/LAPS 2.6 20:31:07 10° W 20:34:13 70° N 20:36:00 15° ENE
HJ-1C 3.3 20:30:59 10° S 20:34:15 86° WSW 20:37:32 10° NNW
MDS-1 3.5 20:33:19 10° W 20:35:10 86° N 20:37:21 15° E
Cosmos 468 Rocket 4.4 20:32:06 10° SSE 20:36:50 38° E 20:41:33 10° NNE
ALOS 2.6 20:40:24 10° SSE 20:44:51 46° ENE 20:49:19 10° N
Cosmos 2297 Rocket 3.0 20:42:09 10° N 20:47:12 33° ENE 20:50:15 20° ESE
Cosmos 2082 4.0 20:42:40 10° N 20:48:03 45° ENE 20:52:02 17° SE
Cosmos 1814 Rocket 4.3 20:43:20 10° S 20:48:21 43° E 20:53:21 10° NNE
GPS 2-15 Rocket1 4.0 20:44:53 10° WSW 20:49:05 34° S 20:51:27 21° SE
Helios 1A 3.6 20:46:15 10° S 20:50:20 58° W 20:54:28 10° NNW
USA 186 2.5 20:51:43 29° E 20:52:02 30° ENE 20:54:42 10° NNE
ATLAS 2A CENTAUR R/B 1.7 20:48:52 10° W 20:53:47 35° SSW 20:54:42 25° SSE
Cosmos 1346 Rocket 2.7 20:50:08 10° N 20:54:07 86° E 20:58:08 10° S
ATLAS 3B CENTAUR R/B -0.6 20:53:06 10° W 20:55:10 80° SW 20:55:10 80° SW
OTV 4 2.0 20:55:16 10° NW 20:57:47 24° NNE 20:58:28 22° NE
NOSS 3-4 (A) 3.8 20:54:19 10° NNW 21:01:33 82° ENE 21:07:52 16° SSE
NOSS 3-4 (C) 3.8 20:54:26 10° NNW 21:01:41 81° ENE 21:07:56 16° SSE
Cosmos 1461 2.6 21:02:26 10° NNW 21:06:25 72° ENE 21:07:46 38° SE
Cosmos 1605 Rocket 4.4 21:02:02 10° SSW 21:08:20 67° W 21:14:36 10° N
CZ-4B DEB 3.6 21:06:39 12° S 21:09:29 52° W 21:12:42 10° NNW
Cosmos 1743 4.4 21:13:07 21° NE 21:13:07 21° NE 21:14:45 10° NNE
Cosmos 1697 Rocket 2.9 21:09:16 10° SSW 21:14:54 74° WNW 21:20:33 10° NNE
Cosmos 2100 Rocket 4.0 21:11:56 10° SSE 21:18:04 57° E 21:24:10 10° NNE
RESURS DK-1 4.4 21:18:12 10° NNE 21:19:38 15° NE 21:19:38 15° NE
Envisat 4.1 21:23:25 27° ENE 21:23:25 27° ENE 21:27:00 10° NNE
Cosmos 1066 Rocket 4.5 21:19:05 10° N 21:24:38 49° E 21:25:46 43° ESE
Iridium 4 Rocket 3.0 21:22:50 10° N 21:27:38 85° E 21:29:07 42° S
Cosmos 2061 Rocket 3.9 21:22:21 12° S 21:28:13 63° E 21:34:24 10° NNE
Cosmos 1626 Rocket 3.6 21:24:36 10° N 21:28:58 77° W 21:30:34 38° S
Cosmos 2298 Rocket 4.0 21:26:02 10° N 21:31:17 57° ENE 21:31:50 54° E
Cosmos 1937 Rocket 4.3 21:27:50 10° N 21:32:04 35° NE 21:32:04 35° NE
Cosmos 2084 4.5 21:30:10 10° N 21:33:09 33° NNE 21:33:09 33° NNE
Milstar 3 Cent rocket 4.4 21:10:23 10° W 21:35:13 86° N 21:41:58 34° E
H-2A R/B 3.9 21:35:07 25° SSW 21:36:50 41° W 21:40:32 10° NNW
Cosmos 1980 Rocket 2.2 21:32:45 10° SSW 21:38:24 79° WNW 21:44:06 10° NNE
Cosmos 1602 Rocket 4.1 21:34:24 10° NNW 21:38:44 57° W 21:40:24 34° SSW
Cosmos 220 Rocket 4.2 21:38:50 10° NNW 21:43:01 64° WSW 21:43:07 63° WSW
Lacrosse 5 3.2 21:41:22 10° N 21:44:53 26° NNE 21:44:53 26° NNE
Cosmos 1459 Rocket 3.9 21:42:06 15° S 21:47:16 84° W 21:53:22 10° N
ERS-1 Rocket 3.0 21:48:21 66° NE 21:48:21 66° NE 21:52:54 10° N
Cosmos 2150 Rocket 4.0 21:51:45 10° NNW 21:56:30 76° NNW 21:56:30 76° NNW
Lacrosse 5 rocket 3.0 21:56:04 10° NW 21:57:58 27° WNW 21:57:58 27° WNW
Cosmos 2098 Rocket 4.2 22:00:54 60° ENE 22:00:54 60° ENE 22:06:23 10° NNE
Cosmos 1763 Rocket 3.9 21:55:55 10° SSW 22:00:57 59° WNW 22:05:58 10° N
Delta 2 Rocket 4.4 21:59:16 10° WNW 22:03:59 56° WSW 22:03:59 56° WSW
Cosmos 2322 Rocket 4.5 22:16:55 13° NNE 22:16:55 13° NNE 22:17:26 10° NNE
Hubble Space Telescope 3.6 22:10:09 10° WSW 22:10:37 12° WSW 22:10:37 12° WSW
Cosmos 1898 Rocket 4.1 22:07:50 10° NNW 22:12:34 54° W 22:12:34 54° W
DELTA 2 R/B (1) 4.2 22:08:39 10° NW 22:13:06 49° NNW 22:13:06 49° NNW
Cosmos 2227 Rocket 4.2 22:11:37 10° NW 22:15:52 22° W 22:18:41 15° SW
Cosmos 2297 Rocket 4.0 22:26:35 10° NW 22:30:58 23° WSW 22:32:06 22° WSW
